Wind_Speed
45 45 46 46 45 44 42 41 41 41 40 41 41 41 42 43 43 44 46 47 48 48 49 50 52 54 55 56 57 57 58 58 58 59 60 61 62 63 63 62 61 60 58
48 47 46 45 45 45 45 44 44 43 43 44 45 46 48 48 48 48 50 51 52 52 53 54 56 57 57 57 57 57 56 57 58 58 59 60 61 60 59 58 56 54 52
47 46 47 47 46 46 46 45 45 46 46 47 48 50 50 51 51 52 53 54 55 56 57 58 57 57 57 57 56 56 56 57 57 57 57 58 57 57 55 52 50 48 47
47 47 47 47 47 46 46 46 47 49 50 49 50 52 52 53 54 54 55 56 57 58 59 58 57 56 56 56 55 55 55 55 55 55 55 54 53 52 49 46 44 42 41
43 44 45 46 46 46 46 47 48 49 50 49 50 52 52 53 53 55 57 57 58 58 57 57 56 55 54 54 54 53 53 53 53 53 51 50 48 46 44 41 38 36 36
38 38 39 41 43 45 46 47 47 48 50 50 52 53 55 56 57 58 58 57 57 56 56 55 54 53 53 53 52 52 51 50 50 48 46 44 43 41 37 35 34 33 31
34 35 36 38 40 41 44 45 46 48 49 51 54 55 56 56 57 57 56 55 55 54 54 53 53 52 52 52 50 49 48 47 45 43 41 39 36 33 31 30 30 30 29
33 34 36 38 40 42 44 46 48 50 51 52 53 54 55 56 56 56 55 54 54 53 52 52 52 50 49 48 47 45 44 43 40 38 35 32 29 27 26 26 26 27 29
33 34 36 38 40 42 43 46 48 49 51 52 53 53 54 54 54 54 53 53 52 51 51 50 48 47 45 43 41 40 38 37 34 31 27 24 23 23 23 24 25 26 28
33 34 36 37 39 40 42 44 45 47 48 50 51 51 51 51 51 51 50 49 48 47 46 44 42 41 39 36 34 33 31 29 27 24 20 19 20 20 21 23 25 27 28
32 33 35 36 38 39 41 43 44 45 46 47 47 47 47 46 46 45 45 44 44 42 41 38 35 33 30 28 26 24 22 21 19 17 17 17 18 20 22 24 25 27 28
29 30 32 34 36 38 40 41 42 43 43 43 43 42 41 40 40 40 39 38 36 34 31 28 25 23 21 19 17 15 14 13 13 13 14 16 18 20 22 24 25 27 27
26 28 30 32 34 35 36 37 37 37 37 37 37 36 35 34 33 32 30 27 23 20 18 16 15 13 11 10 8 8 8 8 9 11 13 15 18 20 22 23 25 26 26
24 26 27 29 30 32 32 32 32 31 31 30 29 28 27 26 24 21 17 14 12 10 8 6 5 4 3 2 2 3 4 6 9 11 13 16 18 20 22 23 24 25 25
22 23 25 26 28 28 27 27 26 25 24 23 22 20 19 16 14 11 8 5 3 1 2 3 3 4 4 3 3 4 5 7 9 12 14 16 18 20 21 23 24 24 22
20 21 23 24 25 25 24 23 22 20 19 17 16 14 12 9 7 5 4 5 6 7 8 8 8 9 8 8 7 7 8 9 11 13 15 17 19 20 22 23 23 23 22
19 20 20 22 22 22 21 20 19 17 15 13 12 10 9 8 8 9 10 11 11 12 12 12 12 11 10 10 9 9 10 11 12 14 16 18 20 22 23 23 24 23 23
17 18 18 19 19 19 19 18 16 15 13 11 10 10 9 10 11 12 14 14 14 15 15 14 13 12 11 11 10 11 11 12 13 15 17 19 21 23 24 24 24 23 23
15 16 17 17 18 18 17 16 15 14 13 12 11 11 12 12 14 15 16 16 16 15 14 13 13 12 12 12 12 12 13 14 15 16 18 20 21 23 24 24 24 23 23
14 15 15 16 16 16 16 16 15 14 14 13 13 13 13 14 15 16 16 16 16 15 14 13 13 12 12 12 12 13 13 14 15 17 18 20 21 22 23 24 24 23 23
12 13 13 14 14 15 15 15 14 14 13 13 13 14 14 15 15 16 16 16 15 15 14 13 13 13 13 13 13 13 14 15 16 17 18 20 21 21 22 23 23 23 22
10 11 11 12 13 13 13 13 14 13 13 14 14 14 14 15 15 15 15 14 14 14 13 13 13 13 13 13 13 13 14 16 17 18 19 19 20 21 21 22 23 23 22
9 10 10 10 11 11 11 12 12 12 13 13 13 14 13 13 13 13 13 12 12 12 12 12 12 12 13 13 13 14 15 16 18 18 18 19 19 20 20 21 22 22 21
8 9 9 9 9 9 9 9 10 10 10 11 11 11 12 12 11 11 10 10 10 10 11 11 12 12 12 13 13 14 15 17 18 18 18 19 19 19 19 20 20 20 20
8 8 8 8 8 8 8 8 7 8 8 8 8 8 8 8 8 8 8 8 8 8 9 10 11 11 12 13 13 14 15 17 18 18 19 19 19 19 19 19 19 19 19
7 7 7 7 7 7 7 6 6 6 6 6 6 6 6 6 6 5 6 6 7 7 8 9 10 11 12 13 13 15 15 16 17 18 19 19 19 19 19 19 19 19 19
Wind_Direction
271 274 277 280 282 284 286 287 286 286 286 285 284 284 285 285 284 284 285 287 287 287 287 289 291 293 293 294 294 294 294 294 295 295 295 295 295 296 297 299 299 299 299
270 273 276 278 280 282 283 284 284 283 284 284 284 285 286 286 285 285 285 287 287 287 287 289 290 292 292 292 293 293 294 294 295 296 296 296 297 298 300 301 302 301 301
269 270 273 276 277 279 281 281 280 282 283 283 285 284 284 284 285 285 285 286 287 287 287 288 289 290 291 291 292 293 294 295 296 296 297 298 299 301 302 303 303 303 304
270 271 272 275 276 277 279 279 279 281 281 280 282 281 281 281 282 283 283 284 285 285 285 287 288 289 289 290 292 293 294 295 296 297 298 300 301 302 303 304 304 305 307
273 274 274 276 276 276 278 278 280 281 280 279 278 279 280 281 281 281 282 283 283 283 285 286 287 288 289 290 291 292 294 295 296 298 300 301 302 302 304 305 305 308 309
276 277 277 277 277 277 279 279 280 279 277 277 278 279 281 282 283 282 283 283 284 285 285 286 287 287 287 288 289 291 292 294 296 299 301 302 302 302 303 305 307 309 311
275 275 275 277 278 278 279 279 278 277 276 278 280 282 283 284 284 284 284 284 284 285 285 285 285 286 287 288 289 291 292 294 296 298 300 301 301 302 304 307 310 313 316
276 275 276 276 277 278 278 278 277 277 279 280 282 282 283 283 284 284 284 284 285 284 284 284 285 285 287 288 290 291 293 295 296 298 300 300 300 303 307 310 313 316 318
279 280 280 280 281 282 282 283 283 283 283 284 285 285 285 286 285 285 284 283 284 284 284 285 285 286 287 289 290 291 293 295 297 299 300 300 303 307 311 315 318 320 321
284 285 286 287 288 288 288 288 287 287 287 287 287 286 286 286 285 285 285 285 285 285 286 286 286 286 287 287 288 290 293 296 299 301 302 305 310 314 317 321 322 323 323
291 291 292 292 293 292 292 291 290 290 290 289 289 289 289 289 288 288 287 287 287 287 286 285 285 284 285 286 288 291 293 297 301 306 311 316 320 323 325 325 326 326 326
296 297 298 299 299 299 297 296 294 293 293 293 292 292 292 292 292 291 290 289 288 286 285 283 282 282 284 285 288 291 295 301 308 316 322 326 329 330 330 329 329 329 329
305 306 305 305 305 305 303 302 301 299 298 296 296 296 297 296 296 296 295 293 290 288 286 284 282 280 278 280 286 295 305 315 326 333 336 337 337 335 335 335 335 335 334
311 312 313 313 313 313 312 310 308 306 305 304 303 303 303 303 303 302 300 298 295 293 289 284 277 264 259 274 305 324 340 350 352 349 347 345 343 343 344 344 344 343 342
318 320 322 323 323 323 322 321 319 317 316 315 315 315 315 315 314 316 318 323 335 19 89 113 120 114 106 96 74 49 29 16 6 359 355 354 354 355 355 355 354 354 354
325 327 329 330 331 333 334 333 332 330 330 332 334 336 340 345 354 16 45 67 84 94 101 105 107 106 100 89 75 57 41 26 15 9 6 5 6 5 4 4 4 4 5
331 332 334 336 338 340 342 343 344 346 347 352 359 6 17 36 55 72 81 89 94 97 100 103 102 98 90 80 66 53 40 30 23 18 17 17 16 13 12 11 11 11 13
337 339 342 344 347 350 352 355 358 2 8 17 27 37 51 65 78 87 91 93 96 100 102 100 96 88 78 68 59 49 41 34 30 28 26 23 20 18 17 17 17 17 19
342 346 350 353 357 0 4 8 13 20 29 39 49 58 68 78 87 92 95 98 100 101 98 92 84 76 67 59 53 47 42 39 37 32 27 23 21 19 20 20 21 22 24
346 350 355 1 5 10 15 20 27 36 45 54 63 72 80 87 93 96 98 99 98 94 88 82 74 66 60 55 51 48 45 42 36 29 25 23 21 21 22 23 25 27 28
349 355 1 7 13 18 24 30 38 47 55 63 71 79 86 92 96 97 96 93 89 84 78 72 66 61 56 53 51 50 46 40 32 28 25 23 23 23 24 26 27 29 31
356 1 6 12 18 24 30 38 45 53 62 70 77 84 90 94 96 96 92 87 83 77 71 65 60 56 54 53 52 48 43 37 31 27 24 24 24 25 26 28 30 32 34
2 6 10 16 21 27 33 42 50 59 67 74 80 84 89 93 94 92 88 83 77 71 64 58 55 53 53 52 49 46 40 33 28 25 25 25 25 27 29 31 32 34 36
7 8 12 17 22 28 34 42 52 61 70 77 82 84 86 89 89 87 83 77 70 64 59 54 51 51 52 49 46 40 34 30 28 28 28 27 28 29 32 33 35 36 39
4 6 12 17 21 26 33 41 50 60 69 75 79 82 84 84 83 80 75 68 63 59 56 52 51 51 49 45 40 35 31 30 31 31 30 30 31 33 34 36 37 39 41
4 6 9 14 18 23 30 37 45 55 63 68 71 75 79 79 78 74 67 61 60 59 57 55 53 50 46 42 37 33 32 31 31 31 32 33 34 36 36 38 40 42 43
Height
5801 5800 5799 5798 5796 5795 5794 5793 5791 5790 5789 5788 5786 5784 5783 5781 5779 5777 5775 5773 5770 5768 5765 5762 5758 5755 5751 5747 5743 5739 5734 5729 5724 5717 5710 5704 5697 5690 5683 5675 5667 5660 5653
5791 5791 5790 5789 5787 5785 5784 5783 5781 5780 5778 5777 5775 5773 5771 5769 5767 5765 5762 5759 5757 5754 5751 5748 5744 5740 5737 5732 5728 5724 5719 5714 5709 5703 5696 5689 5682 5675 5668 5660 5652 5645 5639
5781 5780 5780 5779 5777 5775 5774 5772 5770 5768 5767 5765 5763 5761 5758 5756 5754 5751 5749 5746 5743 5740 5737 5733 5729 5726 5722 5718 5714 5709 5704 5699 5694 5689 5682 5675 5668 5661 5654 5647 5639 5633 5626
5770 5769 5768 5767 5766 5764 5763 5761 5759 5757 5755 5753 5750 5748 5745 5742 5739 5737 5734 5731 5728 5725 5722 5718 5714 5711 5707 5704 5699 5695 5690 5685 5680 5674 5668 5661 5654 5648 5642 5635 5629 5622 5616
5759 5757 5756 5755 5754 5752 5751 5749 5747 5745 5743 5740 5737 5735 5732 5729 5726 5723 5720 5717 5714 5710 5707 5703 5700 5696 5693 5689 5685 5681 5677 5672 5667 5661 5655 5649 5643 5637 5631 5625 5620 5614 5607
5747 5746 5745 5743 5742 5740 5738 5736 5734 5732 5729 5727 5723 5721 5718 5715 5712 5708 5705 5702 5699 5695 5692 5688 5685 5682 5679 5675 5672 5668 5664 5660 5655 5649 5644 5639 5633 5627 5622 5616 5611 5606 5601
5737 5736 5734 5732 5731 5729 5727 5724 5722 5719 5716 5713 5710 5707 5704 5700 5697 5694 5690 5687 5684 5681 5677 5674 5671 5668 5665 5662 5658 5655 5652 5648 5644 5640 5635 5629 5624 5619 5614 5609 5604 5598 5593
5728 5726 5724 5722 5720 5718 5716 5713 5709 5706 5702 5699 5695 5692 5688 5685 5681 5678 5675 5672 5669 5666 5663 5660 5657 5654 5652 5649 5646 5643 5640 5637 5634 5630 5626 5621 5617 5612 5607 5603 5598 5593 5586
5719 5716 5714 5712 5709 5706 5703 5700 5696 5693 5689 5685 5681 5677 5673 5670 5666 5662 5659 5656 5653 5651 5649 5646 5643 5641 5639 5637 5635 5632 5630 5627 5625 5621 5618 5614 5610 5606 5602 5597 5593 5588 5581
5709 5706 5704 5701 5698 5695 5691 5687 5683 5679 5675 5671 5667 5662 5658 5655 5651 5648 5644 5641 5639 5637 5634 5633 5631 5629 5628 5626 5625 5623 5621 5619 5617 5614 5611 5608 5605 5601 5597 5592 5587 5582 5576
5700 5697 5694 5691 5687 5684 5680 5675 5671 5666 5661 5657 5653 5648 5644 5641 5637 5634 5631 5628 5625 5624 5622 5621 5620 5619 5618 5618 5617 5616 5615 5613 5611 5609 5606 5603 5600 5597 5592 5588 5582 5577 5571
5692 5689 5685 5682 5678 5673 5668 5664 5659 5654 5649 5644 5640 5636 5632 5628 5625 5621 5618 5616 5613 5612 5611 5611 5611 5611 5611 5611 5611 5611 5610 5609 5607 5605 5603 5600 5597 5593 5588 5583 5578 5572 5566
5685 5681 5677 5673 5668 5663 5658 5653 5648 5643 5638 5633 5629 5625 5622 5618 5615 5611 5608 5606 5604 5604 5604 5604 5605 5606 5607 5607 5608 5608 5608 5607 5605 5603 5601 5598 5594 5590 5585 5580 5574 5568 5562
5679 5675 5670 5665 5660 5655 5649 5644 5639 5634 5629 5625 5621 5617 5614 5611 5608 5605 5602 5601 5600 5600 5600 5601 5602 5603 5604 5605 5606 5606 5606 5605 5604 5602 5599 5596 5592 5588 5583 5577 5571 5565 5559
5673 5669 5665 5660 5654 5649 5643 5638 5632 5627 5623 5619 5615 5612 5608 5606 5603 5601 5600 5599 5599 5599 5600 5601 5602 5603 5604 5605 5606 5606 5606 5605 5604 5601 5598 5595 5591 5586 5581 5575 5569 5563 5557
5669 5665 5661 5656 5651 5645 5639 5634 5629 5624 5620 5616 5612 5609 5606 5604 5602 5601 5600 5600 5600 5601 5602 5602 5604 5605 5606 5607 5607 5607 5606 5605 5603 5601 5598 5594 5590 5585 5580 5574 5569 5563 5557
5666 5662 5658 5653 5648 5643 5637 5632 5627 5623 5619 5615 5612 5609 5607 5605 5604 5603 5603 5603 5603 5604 5605 5606 5607 5608 5609 5609 5609 5608 5607 5606 5604 5601 5598 5594 5590 5585 5580 5575 5569 5563 5558
5664 5660 5656 5651 5647 5642 5637 5632 5627 5623 5619 5616 5614 5611 5610 5608 5607 5607 5607 5607 5608 5609 5609 5610 5611 5611 5612 5611 5611 5610 5609 5607 5605 5602 5599 5595 5591 5586 5581 5576 5570 5565 5560
5662 5658 5655 5650 5646 5642 5637 5633 5629 5625 5622 5619 5617 5615 5614 5613 5612 5612 5612 5612 5613 5613 5614 5614 5615 5615 5614 5614 5613 5612 5610 5608 5606 5603 5600 5596 5592 5587 5582 5577 5572 5567 5562
5661 5657 5654 5650 5646 5642 5638 5635 5631 5628 5625 5623 5621 5620 5619 5618 5617 5617 5617 5617 5618 5618 5618 5619 5618 5618 5617 5616 5615 5614 5612 5610 5608 5605 5601 5598 5594 5589 5584 5580 5575 5570 5565
5660 5657 5654 5651 5648 5644 5641 5638 5635 5632 5629 5627 5626 5624 5623 5623 5623 5622 5623 5623 5623 5623 5623 5622 5622 5621 5620 5619 5617 5616 5614 5612 5610 5607 5603 5599 5595 5591 5587 5582 5578 5573 5568
5659 5657 5654 5652 5649 5646 5644 5641 5638 5636 5634 5632 5631 5629 5629 5628 5628 5628 5628 5628 5627 5627 5627 5626 5625 5624 5623 5622 5620 5619 5617 5615 5612 5609 5605 5601 5598 5594 5589 5585 5581 5576 5572
5659 5657 5655 5653 5651 5648 5646 5644 5642 5640 5638 5637 5635 5634 5634 5633 5633 5633 5632 5632 5631 5631 5630 5629 5628 5627 5626 5624 5623 5621 5619 5617 5614 5610 5607 5603 5600 5596 5592 5588 5584 5580 5576
5659 5657 5655 5654 5652 5650 5648 5647 5645 5643 5642 5641 5640 5639 5638 5637 5637 5636 5636 5636 5635 5634 5633 5632 5631 5630 5629 5627 5626 5624 5621 5619 5616 5612 5609 5606 5602 5599 5595 5591 5588 5584 5581
5659 5657 5656 5654 5653 5651 5650 5649 5647 5646 5645 5644 5643 5642 5642 5641 5640 5640 5639 5638 5638 5637 5636 5635 5634 5633 5631 5630 5628 5626 5624 5621 5618 5615 5612 5608 5605 5601 5598 5595 5591 5588 5585
5658 5657 5656 5655 5653 5652 5651 5650 5649 5648 5647 5646 5645 5645 5644 5643 5643 5642 5642 5641 5640 5640 5639 5638 5637 5635 5634 5633 5631 5628 5626 5623 5620 5617 5614 5611 5608 5605 5601 5598 5595 5592 5589